Temperature
9 8 8 7 7 7 6 6 6 5 6 6 6 6 5 5 5 5 4 4 4 4 4 4 5 5 5 5 5 6 6 6 6 6 6 6 6 6
8 8 7 7 6 6 6 5 5 5 5 5 5 5 5 4 4 4 4 4 3 3 4 4 4 4 4 4 5 5 5 5 6 6 6 6 6 6
7 6 6 5 5 5 5 5 5 4 4 4 4 4 4 4 3 3 3 3 3 3 3 3 3 3 3 4 4 4 4 5 5 5 5 5 5 5
6 5 5 4 4 4 4 4 4 4 4 4 3 3 3 3 3 3 2 2 2 2 2 2 2 2 3 3 3 3 4 4 4 4 4 4 4 4
4 4 4 4 3 3 3 3 3 3 3 3 3 3 2 2 2 2 2 2 2 2 1 2 2 2 2 2 3 3 3 3 3 4 4 4 4 4
3 3 3 3 3 3 3 3 3 3 2 2 2 2 2 2 1 1 1 1 1 1 1 1 1 1 2 2 2 2 2 2 3 3 3 3 3 3
2 2 2 2 2 2 2 2 2 2 2 2 1 1 1 1 1 1 0 0 0 0 1 1 1 1 1 1 1 1 2 2 2 2 2 2 2 2
2 1 1 1 1 1 1 2 2 1 1 1 1 1 1 1 0 0 -0 -0 -0 0 0 0 0 0 0 0 0 1 1 1 1 1 1 1 1 1
1 1 1 1 1 1 1 1 1 1 1 1 1 0 0 -0 -0 -0 -0 -0 -0 -0 -0 -0 -0 -0 -0 -0 -0 0 0 0 0 0 1 1 1 1
1 1 1 0 0 0 0 0 0 0 0 0 0 -0 -0 -0 -1 -1 -1 -1 -1 -1 -1 -1 -1 -1 -1 -1 -1 -1 -1 -1 -1 -0 -0 -0 -0 -0
0 0 0 -0 -0 -0 -0 -0 0 0 0 -0 -0 -0 -1 -1 -1 -1 -1 -1 -1 -1 -1 -1 -1 -1 -1 -1 -1 -1 -1 -1 -1 -1 -1 -1 -1 -1
0 0 -0 -0 -0 -0 -0 -0 -0 -0 -0 -0 -1 -1 -1 -1 -1 -1 -1 -1 -1 -1 -1 -1 -1 -1 -1 -1 -2 -2 -2 -2 -2 -2 -2 -2 -2 -1
0 0 -0 -0 -0 -1 -0 -0 -0 -1 -1 -1 -1 -1 -1 -1 -1 -1 -1 -1 -1 -2 -2 -2 -2 -2 -2 -2 -2 -2 -2 -2 -2 -2 -2 -2 -2 -2
0 -0 -0 -0 -0 -1 -0 -1 -1 -1 -1 -1 -1 -1 -1 -2 -2 -2 -2 -2 -2 -2 -2 -2 -2 -2 -2 -2 -2 -2 -3 -3 -3 -3 -2 -2 -2 -2
-0 -0 -1 -1 -1 -1 -1 -1 -1 -1 -1 -1 -1 -1 -2 -2 -2 -2 -2 -2 -2 -2 -2 -3 -3 -3 -3 -3 -3 -3 -3 -3 -3 -3 -3 -3 -3 -3
-0 -1 -1 -1 -1 -1 -1 -1 -1 -1 -1 -1 -1 -1 -2 -2 -2 -2 -2 -3 -3 -3 -3 -3 -3 -3 -3 -3 -3 -3 -3 -4 -4 -4 -3 -3 -3 -3
-1 -1 -1 -1 -1 -1 -1 -1 -1 -1 -1 -1 -1 -2 -2 -2 -2 -3 -3 -3 -3 -3 -3 -4 -4 -3 -3 -3 -3 -3 -3 -4 -4 -4 -4 -3 -4 -4
-1 -1 -1 -1 -1 -1 -1 -1 -1 -1 -1 -1 -2 -2 -2 -2 -3 -3 -3 -3 -3 -4 -4 -4 -4 -4 -4 -3 -3 -3 -4 -4 -4 -4 -4 -4 -3 -4
-1 -0 -0 -0 -0 -1 -1 -1 -1 -1 -2 -2 -2 -2 -2 -2 -3 -3 -3 -3 -4 -4 -4 -4 -4 -4 -4 -4 -4 -4 -4 -5 -5 -5 -5 -5 -4 -3
-1 -0 0 -0 -0 -1 -1 -1 -1 -2 -2 -2 -2 -2 -2 -3 -3 -3 -3 -4 -4 -4 -4 -5 -5 -5 -5 -5 -5 -4 -5 -6 -6 -6 -6 -5 -5 -4
-0 -0 -0 -0 -0 -1 -1 -1 -1 -2 -2 -2 -2 -2 -3 -3 -3 -4 -4 -4 -4 -4 -4 -5 -6 -6 -6 -6 -5 -4 -5 -6 -7 -7 -6 -6 -5 -4
-1 -0 -0 -1 -1 -1 -1 -1 -2 -2 -2 -2 -2 -3 -3 -4 -4 -4 -4 -5 -5 -5 -5 -5 -6 -6 -6 -6 -6 -6 -5 -6 -7 -7 -7 -7 -7 -6
-0 -0 -1 -1 -1 -1 -1 -1 -2 -2 -2 -2 -3 -3 -4 -4 -4 -5 -5 -5 -5 -5 -5 -6 -6 -7 -7 -7 -7 -6 -6 -6 -7 -7 -6 -7 -8 -7
Wind_Speed
1 1 1 1 1 1 1 2 3 3 4 4 3 2 3 5 6 7 8 9 9 10 11 13 13 13 13 12 11 9 8 7 5 4 7 9 9 10
1 1 1 0 0 0 1 1 1 2 2 2 2 2 3 4 5 6 7 8 9 9 10 12 13 14 14 13 12 10 9 9 9 8 7 8 7 8
1 2 1 1 0 0 0 0 0 1 2 2 2 2 2 3 4 5 7 8 8 9 9 10 11 12 13 14 14 14 12 11 11 10 10 9 8 8
2 2 2 1 1 1 1 1 0 0 1 3 2 2 2 3 3 3 5 6 7 8 8 9 10 10 11 12 13 14 14 13 12 12 11 10 10 9
3 3 3 3 2 1 1 1 0 1 0 2 3 2 2 2 3 2 3 4 6 7 8 9 9 9 10 10 11 12 13 13 13 13 12 11 10 9
3 3 3 3 3 2 1 1 0 1 1 2 2 2 2 2 3 2 1 2 3 5 6 7 8 9 10 10 10 10 10 11 10 10 10 10 10 8
3 3 3 3 4 3 2 1 1 1 1 2 2 2 2 2 2 1 1 1 2 3 3 4 6 7 9 9 8 8 8 8 8 8 8 7 7 7
4 3 3 3 3 4 4 3 2 2 2 2 2 2 2 2 2 2 2 1 0 2 2 2 4 3 5 7 6 5 6 6 6 6 6 6 5 5
5 4 3 3 4 4 5 6 5 5 2 3 3 3 4 4 4 3 2 2 1 1 1 1 2 2 4 6 5 4 5 5 6 5 5 4 4 3
5 5 5 4 3 4 4 4 3 4 3 3 3 3 3 4 4 4 3 3 1 1 1 0 1 2 3 5 6 5 5 5 5 5 4 3 3 2
4 4 5 4 6 6 5 4 2 2 3 5 6 5 5 6 7 4 3 2 1 0 1 1 1 1 2 2 4 5 5 5 5 5 5 4 3 2
3 4 6 7 7 7 6 5 4 2 2 3 4 5 5 4 4 4 4 3 2 1 0 1 1 2 1 1 2 4 4 4 4 5 5 4 3 2
5 4 4 9 9 8 8 6 6 5 4 4 3 2 2 2 3 4 4 3 3 2 2 2 2 1 1 2 2 2 2 2 3 4 5 4 4 2
6 5 6 10 10 9 7 7 8 6 4 3 3 2 2 2 2 3 4 3 3 3 4 4 3 3 2 1 2 2 2 2 2 2 3 4 5 5
6 9 10 11 10 7 8 9 6 5 4 3 4 3 3 3 3 3 3 2 1 2 4 5 4 3 3 3 2 2 2 2 2 2 2 3 4 4
7 8 11 11 9 7 6 5 4 5 5 4 4 3 3 3 3 3 3 2 1 1 2 5 7 5 4 4 4 4 3 3 2 2 3 5 7 8
6 4 4 3 5 4 4 4 4 4 5 4 4 4 4 4 3 3 3 3 3 2 1 1 4 7 7 5 4 6 5 5 5 4 3 4 4 8
9 5 6 7 7 7 7 6 5 6 5 5 5 5 5 5 4 3 3 4 4 3 3 2 1 0 2 5 10 7 5 4 3 3 3 3 5 5
10 7 7 8 8 7 7 7 6 6 6 6 6 6 5 5 4 4 4 4 4 4 4 3 3 3 2 3 3 8 5 3 2 2 4 4 6 6
8 9 9 8 8 8 8 7 7 6 6 6 6 6 6 5 5 5 5 6 5 4 4 4 5 5 6 4 3 3 7 6 3 3 3 4 6 12
9 9 9 9 8 8 8 8 8 7 7 7 7 7 7 6 6 6 6 9 7 5 6 6 6 9 4 2 4 4 4 10 9 6 4 4 5 4
10 10 9 9 9 9 8 8 8 8 8 8 8 7 7 7 7 8 7 6 7 6 6 4 3 3 4 5 7 6 5 5 10 15 16 13 6 4
10 10 9 9 9 8 8 9 10 8 8 8 8 8 8 7 7 7 7 7 6 6 5 4 4 4 5 6 7 7 9 7 5 6 8 16 20 26
Wind_Direction
191 220 223 243 256 262 253 236 235 235 219 175 161 134 122 97 83 70 55 47 43 39 38 38 36 34 35 37 36 35 37 46 66 116 149 156 169 179
175 172 165 198 302 315 290 275 253 237 224 145 142 138 134 116 91 77 62 51 42 40 38 40 40 38 39 42 40 39 48 58 66 78 110 131 143 160
155 159 158 153 149 19 6 344 319 245 213 135 112 122 124 120 96 80 66 54 41 40 41 43 42 39 39 43 46 49 54 61 63 71 84 98 112 116
170 161 163 143 122 70 61 60 16 319 186 167 137 133 125 130 111 85 62 52 42 36 41 45 44 41 40 43 47 50 54 59 65 69 73 80 89 94
171 171 171 160 153 126 101 94 15 352 64 147 138 122 110 112 101 81 64 41 42 34 39 43 43 44 44 47 50 52 55 59 64 67 68 74 78 82
147 155 161 168 168 159 145 132 112 81 87 123 130 123 115 103 108 107 84 39 25 18 27 37 43 48 50 52 53 54 57 59 62 64 66 67 68 72
140 137 145 155 164 158 151 160 140 139 138 143 144 131 134 133 142 129 127 57 28 20 3 18 29 39 39 39 44 51 56 58 59 63 66 68 67 66
161 144 132 128 139 133 117 117 127 151 173 161 158 166 161 149 134 132 127 115 299 14 17 3 19 27 18 19 29 44 56 60 62 65 67 68 69 67
170 164 157 139 111 94 92 77 61 60 102 158 170 180 169 171 150 137 144 151 181 339 24 360 6 8 7 11 22 58 71 70 68 66 65 62 62 60
176 171 162 153 152 140 125 101 71 44 60 89 139 158 157 152 150 149 146 125 97 45 58 95 351 345 348 6 30 66 74 69 65 57 50 46 42 44
176 173 171 178 194 172 149 142 116 49 75 106 114 125 135 146 141 117 121 112 142 158 42 117 12 335 333 346 18 37 54 59 55 43 32 23 17 29
181 192 199 199 209 190 164 166 179 188 131 104 87 81 76 103 137 146 149 142 156 208 216 119 71 28 4 346 4 18 33 40 40 31 20 11 7 31
191 198 211 214 212 204 183 182 202 182 161 147 131 116 97 92 99 128 145 149 159 202 177 127 123 90 107 306 325 357 6 358 357 357 3 359 349 338
196 197 207 216 215 213 197 198 209 180 150 155 167 182 184 186 165 146 149 154 164 182 173 149 150 158 140 311 296 323 317 300 303 318 332 340 337 325
201 207 211 218 217 217 211 206 198 163 162 181 199 204 196 180 151 138 131 139 161 205 196 187 164 159 167 200 258 289 311 297 277 272 285 293 293 296
202 215 217 219 211 204 211 211 178 175 181 194 200 192 159 156 169 165 162 155 169 243 187 200 191 170 189 215 226 248 239 265 271 242 271 276 271 260
171 171 179 184 191 186 189 191 184 188 200 185 187 184 184 182 183 169 166 162 182 196 203 184 206 216 216 206 233 244 245 247 250 255 265 274 258 253
186 186 196 200 204 204 205 205 201 202 200 194 195 196 196 194 190 174 172 182 203 213 211 197 155 357 295 251 227 243 247 249 250 237 229 267 278 253
203 202 205 207 209 207 206 207 208 205 196 196 200 200 198 196 193 195 193 198 212 220 217 192 172 171 228 280 269 216 206 218 231 240 231 239 269 276
207 208 210 209 208 209 209 211 210 201 196 200 200 199 195 193 197 202 201 204 211 213 216 203 198 196 203 225 257 270 222 217 228 253 257 257 269 281
210 212 211 209 208 208 209 207 206 205 201 198 202 200 197 195 205 208 207 220 215 209 221 226 226 223 200 196 262 262 241 235 236 236 243 274 286 276
212 214 213 211 209 207 206 204 207 208 205 204 204 201 197 197 205 207 206 209 213 212 221 223 199 179 178 214 247 261 270 256 258 266 262 255 251 253
211 212 211 209 208 206 204 206 208 211 207 205 203 200 196 200 204 205 206 208 208 211 212 209 195 196 212 223 247 263 270 275 274 273 268 262 257 258
Height
1510 1510 1510 1509 1509 1509 1509 1510 1511 1510 1509 1510 1510 1510 1511 1511 1511 1511 1511 1510 1510 1509 1508 1508 1506 1506 1505 1504 1505 1505 1506 1507 1508 1509 1511 1514 1517 1520
1505 1505 1505 1504 1504 1504 1504 1505 1505 1506 1505 1505 1506 1507 1507 1508 1508 1508 1508 1507 1507 1507 1506 1505 1505 1504 1503 1503 1503 1503 1504 1505 1506 1508 1510 1512 1515 1517
1500 1500 1500 1500 1499 1499 1500 1500 1500 1501 1501 1501 1502 1503 1503 1504 1504 1504 1504 1504 1504 1504 1504 1503 1503 1503 1502 1502 1502 1503 1503 1504 1506 1507 1509 1510 1513 1515
1495 1495 1495 1495 1495 1495 1495 1495 1496 1497 1497 1497 1498 1499 1500 1500 1501 1501 1501 1501 1501 1501 1501 1501 1501 1501 1501 1501 1501 1502 1502 1503 1505 1506 1507 1509 1511 1512
1491 1491 1491 1491 1491 1491 1491 1491 1492 1492 1493 1493 1494 1495 1496 1496 1497 1498 1498 1498 1498 1498 1498 1498 1499 1499 1499 1500 1500 1500 1501 1502 1503 1504 1506 1507 1509 1510
1487 1487 1487 1487 1487 1487 1487 1487 1487 1488 1489 1489 1490 1491 1492 1493 1493 1494 1494 1495 1495 1495 1495 1496 1496 1497 1497 1498 1498 1499 1500 1501 1502 1503 1504 1505 1506 1508
1482 1483 1483 1483 1483 1483 1483 1483 1484 1484 1485 1485 1486 1487 1488 1489 1490 1490 1491 1491 1492 1492 1493 1493 1493 1494 1495 1495 1496 1497 1497 1498 1499 1500 1501 1502 1503 1504
1478 1479 1479 1479 1480 1479 1480 1480 1480 1481 1481 1482 1483 1484 1485 1486 1486 1487 1488 1488 1489 1490 1490 1491 1491 1491 1492 1493 1493 1494 1495 1495 1496 1497 1498 1499 1500 1501
1474 1475 1475 1476 1476 1476 1476 1477 1477 1478 1478 1479 1480 1481 1482 1482 1483 1484 1485 1485 1486 1487 1487 1488 1489 1489 1490 1490 1491 1491 1492 1493 1493 1494 1495 1496 1496 1497
1471 1471 1472 1473 1473 1473 1474 1474 1474 1475 1475 1476 1477 1478 1479 1480 1480 1482 1482 1483 1484 1484 1485 1486 1486 1487 1487 1488 1488 1489 1489 1490 1491 1491 1492 1492 1493 1494
1467 1468 1469 1469 1470 1470 1471 1471 1472 1472 1473 1473 1474 1475 1476 1477 1478 1479 1480 1481 1481 1482 1483 1484 1484 1485 1485 1485 1486 1486 1487 1488 1488 1489 1489 1490 1490 1491
1463 1464 1465 1466 1467 1467 1468 1468 1469 1470 1470 1471 1472 1473 1474 1475 1476 1477 1478 1479 1479 1480 1481 1482 1482 1483 1483 1483 1484 1484 1485 1485 1486 1486 1486 1487 1487 1487
1460 1461 1462 1462 1463 1464 1465 1466 1466 1467 1468 1469 1470 1471 1472 1473 1474 1475 1476 1477 1477 1478 1479 1479 1480 1480 1481 1481 1482 1482 1482 1483 1483 1483 1483 1483 1483 1484
1456 1457 1458 1459 1460 1461 1462 1463 1464 1465 1466 1467 1468 1469 1469 1470 1471 1472 1473 1474 1475 1476 1476 1477 1477 1478 1478 1479 1479 1479 1480 1480 1479 1479 1479 1479 1479 1479
1452 1453 1455 1456 1457 1458 1459 1460 1461 1462 1463 1464 1465 1466 1467 1468 1469 1469 1470 1471 1472 1473 1473 1474 1474 1475 1475 1475 1475 1476 1476 1476 1475 1475 1475 1475 1474 1474
1448 1449 1451 1452 1453 1455 1456 1457 1458 1459 1460 1461 1462 1463 1464 1465 1466 1467 1467 1468 1469 1470 1470 1470 1471 1471 1471 1471 1471 1471 1472 1471 1471 1470 1470 1470 1470 1469
1443 1445 1446 1448 1449 1451 1452 1453 1455 1456 1457 1458 1459 1460 1461 1462 1462 1463 1464 1465 1465 1466 1466 1467 1467 1467 1467 1467 1467 1467 1467 1466 1466 1465 1465 1464 1465 1464
1438 1439 1441 1443 1445 1446 1448 1449 1451 1452 1453 1454 1455 1456 1457 1458 1459 1459 1460 1461 1461 1462 1462 1462 1462 1462 1463 1463 1463 1462 1462 1462 1461 1460 1459 1459 1458 1459
1432 1433 1435 1438 1440 1442 1443 1445 1446 1448 1449 1449 1451 1452 1453 1453 1454 1455 1455 1456 1456 1457 1458 1458 1458 1458 1458 1457 1458 1457 1457 1457 1456 1455 1454 1453 1451 1451
1425 1427 1430 1432 1434 1436 1438 1440 1441 1442 1443 1444 1445 1446 1447 1448 1449 1450 1450 1451 1451 1452 1452 1453 1453 1453 1453 1453 1452 1451 1452 1451 1450 1449 1448 1446 1445 1445
1419 1421 1424 1426 1428 1431 1432 1434 1435 1436 1438 1439 1440 1441 1442 1442 1443 1444 1445 1445 1446 1446 1447 1448 1448 1448 1447 1447 1446 1445 1446 1446 1444 1443 1441 1439 1437 1436
1413 1415 1417 1420 1422 1424 1426 1427 1429 1430 1431 1432 1433 1434 1435 1436 1437 1438 1439 1439 1440 1441 1441 1442 1442 1442 1441 1441 1440 1440 1440 1440 1439 1437 1436 1434 1432 1429
1406 1408 1411 1413 1415 1417 1418 1420 1421 1423 1424 1425 1426 1427 1428 1429 1430 1431 1432 1433 1434 1435 1435 1436 1436 1436 1435 1435 1434 1433 1433 1432 1431 1430 1430 1429 1427 1424